EDT,Max TemperatureF,Mean TemperatureF,Min TemperatureF,Max Dew PointF,MeanDew PointF,Min DewpointF,Max Humidity, Mean Humidity, Min Humidity, Max Sea Level PressureIn, Mean Sea Level PressureIn, Min Sea Level PressureIn, Max VisibilityMiles, Mean VisibilityMiles, Min VisibilityMiles, Max Wind SpeedMPH, Mean Wind SpeedMPH, Max Gust SpeedMPH,PrecipitationIn, CloudCover, Events, WindDirDegrees
2013-9-1,84,75,66,70,67,64,100,87,61,29.81,29.78,29.74,10,4,0,10,2,,0.00,4,Fog,209
2013-9-2,82,70,57,69,62,53,96,78,40,29.98,29.85,29.76,10,6,0,15,4,23,0.01,4,Fog,341
2013-9-3,78,66,53,55,53,49,93,71,42,30.07,30.03,29.96,10,10,10,12,4,17,0.00,3,,321
2013-9-4,82,66,51,58,53,49,100,78,35,30.13,30.10,30.06,10,7,1,16,2,21,0.01,0,,262
2013-9-5,80,68,55,56,47,34,93,57,20,30.26,30.20,30.12,10,10,9,13,4,18,0.00,0,,50
2013-9-6,82,64,46,57,50,45,93,61,33,30.27,30.19,30.07,10,10,10,9,3,,0.00,0,,164
2013-9-7,91,76,62,67,61,54,81,65,35,30.06,29.99,29.92,10,10,10,13,5,18,0.00,2,,223
2013-9-8,79,70,62,66,63,61,94,78,56,30.05,30.01,29.94,10,7,2,13,5,18,0.00,4,,83
2013-9-9,93,78,64,71,63,51,75,63,45,30.03,29.95,29.87,10,10,9,16,8,21,0.00,1,,159
2013-9-10,99,85,73,72,67,60,91,59,30,30.04,29.99,29.91,10,9,4,16,10,24,0.00,0,,227
2013-9-11,97,84,72,69,67,62,91,67,36,30.07,30.01,29.94,10,9,4,15,9,24,0.00,2,Thunderstorm,243
2013-9-12,84,72,61,70,61,50,96,73,33,30.02,29.95,29.86,10,7,2,18,7,25,0.17,3,Rain,290
2013-9-13,66,58,46,49,43,39,86,62,37,30.15,30.10,30.03,10,10,10,14,8,18,0.00,2,,6
2013-9-14,71,54,39,45,39,35,96,71,30,30.22,30.16,30.10,10,8,0,7,1,,0.00,0,Fog,175
2013-9-15,68,56,45,55,49,41,93,76,49,30.13,30.09,30.03,10,9,2,12,3,,0.07,5,Rain,159
2013-9-16,69,62,55,55,52,44,94,79,42,30.34,30.26,30.14,10,8,5,10,5,,0.00,6,,20
2013-9-17,,,,,,,,,,30.37,30.30,30.19,,,,,,,0.00,,,-1
2013-9-18,81,75,69,58,55,50,68,52,35,30.18,30.10,30.01,10,10,10,10,7,,0.00,1,,161
2013-9-19,73,70,66,68,66,61,100,91,78,30.06,30.01,29.88,10,5,0,17,8,24,2.52,6,Fog-Rain-Thunderstorm,191
2013-9-20,75,70,66,70,67,59,94,84,76,29.90,29.83,29.77,10,9,5,16,11,21,0.01,6,Rain,238
2013-9-21,69,62,55,57,51,45,94,72,44,29.91,29.82,29.75,10,10,10,17,9,26,0.01,5,,309
2013-9-22,66,55,46,49,44,42,93,66,43,30.07,30.01,29.92,10,10,10,12,6,17,0.00,4,,19
2013-9-23,68,54,41,47,44,39,93,71,43,30.16,30.11,30.08,10,10,9,12,3,17,0.00,0,,116
2013-9-24,71,56,43,47,45,41,93,70,41,30.13,30.06,29.97,10,10,5,12,5,18,0.00,0,,104
2013-9-25,73,60,46,53,49,45,100,76,42,30.00,29.97,29.94,10,7,0,9,4,,0.00,0,Fog,80
2013-9-26,80,62,45,54,47,44,100,80,32,30.12,30.05,29.98,10,5,0,9,2,,0.00,0,Fog,80
2013-9-27,80,62,45,54,49,42,90,66,39,30.21,30.16,30.12,10,10,6,12,4,,0.00,0,,119
2013-9-28,81,66,51,56,52,49,92,64,35,30.17,30.08,29.99,10,10,7,14,8,22,0.00,0,,151
2013-9-29,70,62,51,61,56,49,94,78,54,30.02,29.99,29.95,10,9,5,12,8,,0.15,6,Rain,308
2013-9-30,71,58,46,56,50,45,100,86,51,30.04,29.99,29.94,10,4,0,14,2,21,0.02,3,Fog,182